This is the latest recevied weather packets stored in our database for station/object KC1ELF. If no packets are shown the sender has not sent any weather packets the latest 10 day(s).
| Time | Temp. | Humidity | Pressure | Rain* | Wind** | Luminosity | Snow |
|---|---|---|---|---|---|---|---|
| 1777938696 | 19.44° C | 37% | 1006.7 hPa | 0 mm | - | - | - |
| 1777938098 | 19.44° C | 37% | 1006.3 hPa | 0 mm | - | - | - |
| 1777937496 | 20° C | 36% | 1006.1 hPa | 0 mm | - | - | - |
| 1777936895 | 20.56° C | 35% | 1006.2 hPa | 0 mm | - | - | - |
| 1777936295 | 20.56° C | 35% | 1005.9 hPa | 0 mm | - | - | - |
| 1777935696 | 20.56° C | 35% | 1005.9 hPa | 0 mm | - | - | - |
| 1777935096 | 21.11° C | 35% | 1005.8 hPa | 0 mm | - | - | - |
| 1777934495 | 21.67° C | 34% | 1005.7 hPa | 0 mm | - | - | - |
| 1777933895 | 21.67° C | 34% | 1005.6 hPa | 0 mm | - | - | - |
| 1777933297 | 21.67° C | 33% | 1005.6 hPa | 0 mm | - | - | - |
| 1777932696 | 21.67° C | 34% | 1005.7 hPa | 0 mm | - | - | - |
| 1777932098 | 21.67° C | 33% | 1005.7 hPa | 0 mm | - | - | - |
| 1777931495 | 22.22° C | 33% | 1005.7 hPa | 0 mm | - | - | - |
| 1777930896 | 22.78° C | 31% | 1005.7 hPa | 0 mm | - | - | - |
| 1777930295 | 22.22° C | 32% | 1005.6 hPa | 0 mm | - | - | - |
| 1777929695 | 22.78° C | 32% | 1005.7 hPa | 0 mm | - | - | - |
| 1777929096 | 22.78° C | 31% | 1005.7 hPa | 0 mm | - | - | - |
| 1777928497 | 23.33° C | 32% | 1005.7 hPa | 0 mm | - | - | - |
| 1777927896 | 22.78° C | 32% | 1005.6 hPa | 0 mm | - | - | - |
| 1777927296 | 22.78° C | 31% | 1005.5 hPa | 0 mm | - | - | - |
| 1777926698 | 22.78° C | 31% | 1005.3 hPa | 0 mm | - | - | - |
| 1777926096 | 22.78° C | 31% | 1005.5 hPa | 0 mm | - | - | - |
| 1777925497 | 22.78° C | 30% | 1005.5 hPa | 0 mm | - | - | - |
| 1777924895 | 22.22° C | 30% | 1005.7 hPa | 0 mm | - | - | - |
| 1777924296 | 23.33° C | 29% | 1005.7 hPa | 0 mm | - | - | - |
* Rain latest hour (hover to see other rain measurements)
** Current wind speed in m/s (hover to see current wind gust speed)